This is the latest recevied weather packets stored in our database for station/object N6GPM. If no packets are shown the sender has not sent any weather packets the latest 10 day(s).
| Time | Temp. | Humidity | Pressure | Rain* | Wind** | Luminosity | Snow |
|---|---|---|---|---|---|---|---|
| 1788308954 | 28.33° C | 17% | 1018 hPa | 0 mm | - | 247 W/m² | - |
| 1788308649 | 28.33° C | 18% | 1018 hPa | 0 mm | - | 268 W/m² | - |
| 1788308344 | 28.33° C | 17% | 1017.9 hPa | 0 mm | - | 289 W/m² | - |
| 1788308038 | 28.33° C | 20% | 1018 hPa | 0 mm | - | 311 W/m² | - |
| 1788307734 | 28.33° C | 18% | 1017.9 hPa | 0 mm | - | 330 W/m² | - |
| 1788307434 | 28.89° C | 20% | 1017.9 hPa | 0 mm | - | 352 W/m² | - |
| 1788307128 | 28.89° C | 20% | 1018 hPa | 0 mm | - | 369 W/m² | - |
| 1788306823 | 28.89° C | 20% | 1018 hPa | 0 mm | - | 392 W/m² | - |
| 1788306518 | 28.89° C | 19% | 1018 hPa | 0 mm | - | 416 W/m² | - |
| 1788306221 | 28.89° C | 19% | 1017.9 hPa | 0 mm | - | 433 W/m² | - |
| 1788305907 | 28.89° C | 18% | 1017.8 hPa | 0 mm | - | 455 W/m² | - |
| 1788305603 | 29.44° C | 20% | 1017.9 hPa | 0 mm | - | 473 W/m² | - |
| 1788305298 | 29.44° C | 20% | 1018 hPa | 0 mm | - | 488 W/m² | - |
| 1788304987 | 29.44° C | 19% | 1018 hPa | 0 mm | - | 511 W/m² | - |
| 1788304683 | 29.44° C | 21% | 1017.8 hPa | 0 mm | - | 530 W/m² | - |
| 1788304374 | 29.44° C | 19% | 1017.9 hPa | 0 mm | - | 552 W/m² | - |
| 1788304070 | 30° C | 21% | 1018 hPa | 0 mm | - | 570 W/m² | - |
| 1788303769 | 29.44° C | 20% | 1018 hPa | 0 mm | - | 589 W/m² | - |
| 1788303464 | 30° C | 21% | 1018.1 hPa | 0 mm | - | 606 W/m² | - |
| 1788303159 | 30° C | 21% | 1018 hPa | 0 mm | - | 627 W/m² | - |
| 1788302855 | 29.44° C | 23% | 1018 hPa | 0 mm | - | 646 W/m² | - |
| 1788302551 | 30° C | 23% | 1018 hPa | 0 mm | - | 665 W/m² | - |
| 1788302247 | 30° C | 21% | 1018.1 hPa | 0 mm | - | 681 W/m² | - |
| 1788301941 | 30° C | 21% | 1018.2 hPa | 0 mm | - | 698 W/m² | - |
| 1788301637 | 30° C | 20% | 1018.2 hPa | 0 mm | - | 714 W/m² | - |
* Rain latest hour (hover to see other rain measurements)
** Current wind speed in m/s (hover to see current wind gust speed)